• In Colombia
  • List of Countries
  • For 7 days
  • Water Temperature
  • Weather Map
  • Weather Widgets
  • user-avatar
    Login

    Hourly Weather Yulara

    Today, 19 January, Sunday

    Time Temperature Precipitation Wind Pressure Humidity
    00:00 +30°C° 0 mm 7 mps 712 mmHg 45%
    01:00 +30°C° 0.3 mm 7 mps 712 mmHg 41%
    02:00 +29°C° 0.3 mm 8 mps 712 mmHg 36%
    03:00 +28°C° 0 mm 8 mps 712 mmHg 34%
    04:00 +27°C° 0.1 mm 8 mps 712 mmHg 39%
    05:00 +27°C° 0.1 mm 7 mps 713 mmHg 44%
    06:00 +26°C° 0.1 mm 7 mps 713 mmHg 49%
    07:00 +28°C° 0 mm 7 mps 714 mmHg 44%
    08:00 +29°C° 0 mm 7 mps 714 mmHg 40%
    09:00 +30°C° 0 mm 7 mps 714 mmHg 37%
    10:00 +32°C° 0 mm 6 mps 714 mmHg 35%
    11:00 +33°C° 0 mm 5 mps 714 mmHg 33%
    12:00 +34°C° 0 mm 4 mps 714 mmHg 31%
    13:00 +35°C° 0 mm 4 mps 713 mmHg 29%
    14:00 +36°C° 0 mm 3 mps 713 mmHg 27%
    15:00 +37°C° 0 mm 2 mps 712 mmHg 25%
    16:00 +37°C° 0 mm 3 mps 712 mmHg 25%
    17:00 +37°C° 0 mm 5 mps 712 mmHg 25%
    18:00 +36°C° 0 mm 6 mps 712 mmHg 25%
    19:00 +35°C° 0 mm 7 mps 713 mmHg 26%
    20:00 +33°C° 0 mm 8 mps 713 mmHg 28%
    21:00 +32°C° 0 mm 9 mps 713 mmHg 29%
    22:00 +31°C° 0 mm 9 mps 714 mmHg 31%
    23:00 +29°C° 0 mm 9 mps 714 mmHg 32%

    Tomorrow, 20 January, Monday

    Time Temperature Precipitation Wind Pressure Humidity
    00:00 +27°C° 0 mm 8 mps 714 mmHg 34%
    01:00 +27°C° 0 mm 8 mps 714 mmHg 34%
    02:00 +26°C° 0 mm 7 mps 714 mmHg 34%
    03:00 +26°C° 0 mm 6 mps 714 mmHg 34%
    04:00 +24°C° 0 mm 6 mps 714 mmHg 34%
    05:00 +23°C° 0 mm 6 mps 714 mmHg 34%
    06:00 +23°C° 0 mm 5 mps 714 mmHg 34%
    07:00 +24°C° 0 mm 6 mps 715 mmHg 32%
    08:00 +26°C° 0 mm 7 mps 715 mmHg 30%
    09:00 +28°C° 0 mm 7 mps 716 mmHg 28%
    10:00 +29°C° 0 mm 7 mps 716 mmHg 26%
    11:00 +32°C° 0 mm 6 mps 715 mmHg 24%
    12:00 +34°C° 0 mm 5 mps 715 mmHg 22%
    13:00 +35°C° 0 mm 4 mps 714 mmHg 21%
    14:00 +36°C° 0 mm 3 mps 713 mmHg 21%
    15:00 +37°C° 0 mm 2 mps 713 mmHg 20%
    16:00 +37°C° 0 mm 2 mps 713 mmHg 19%
    17:00 +37°C° 0 mm 2 mps 713 mmHg 19%
    18:00 +37°C° 0 mm 2 mps 713 mmHg 18%
    19:00 +36°C° 0 mm 3 mps 713 mmHg 19%
    20:00 +34°C° 0 mm 3 mps 713 mmHg 21%
    21:00 +33°C° 0 mm 4 mps 713 mmHg 23%
    22:00 +32°C° 0 mm 5 mps 714 mmHg 24%
    23:00 +32°C° 0 mm 6 mps 714 mmHg 25%

    Day after tomorrow, 21 January, Tuesday

    Time Temperature Precipitation Wind Pressure Humidity
    00:00 +30°C° 0 mm 7 mps 714 mmHg 26%
    01:00 +29°C° 0 mm 7 mps 713 mmHg 26%
    02:00 +28°C° 0 mm 7 mps 713 mmHg 26%
    03:00 +27°C° 0 mm 7 mps 713 mmHg 27%
    04:00 +26°C° 0 mm 6 mps 713 mmHg 27%
    05:00 +26°C° 0 mm 6 mps 714 mmHg 28%
    06:00 +24°C° 0 mm 6 mps 714 mmHg 28%
    07:00 +27°C° 0 mm 6 mps 714 mmHg 27%
    08:00 +29°C° 0 mm 7 mps 715 mmHg 25%
    09:00 +33°C° 0 mm 8 mps 715 mmHg 23%
    10:00 +34°C° 0 mm 7 mps 714 mmHg 22%
    11:00 +36°C° 0 mm 7 mps 714 mmHg 22%
    12:00 +39°C° 0 mm 6 mps 714 mmHg 21%
    13:00 +40°C° 0 mm 6 mps 713 mmHg 20%
    14:00 +40°C° 0 mm 5 mps 712 mmHg 19%
    15:00 +41°C° 0 mm 5 mps 711 mmHg 18%
    16:00 +40°C° 0 mm 5 mps 712 mmHg 21%
    17:00 +39°C° 0 mm 5 mps 712 mmHg 24%
    18:00 +36°C° 0 mm 6 mps 712 mmHg 27%
    19:00 +36°C° 0.1 mm 5 mps 712 mmHg 29%
    20:00 +35°C° 0.1 mm 5 mps 712 mmHg 31%
    21:00 +34°C° 0.1 mm 5 mps 712 mmHg 33%
    22:00 +33°C° 0 mm 4 mps 712 mmHg 36%
    23:00 +33°C° 0 mm 4 mps 712 mmHg 39%

    22 January, Wednesday

    Time Temperature Precipitation Wind Pressure Humidity
    00:00 +32°C° 0 mm 4 mps 712 mmHg 42%
    01:00 +32°C° 0 mm 4 mps 712 mmHg 43%
    02:00 +30°C° 0 mm 3 mps 712 mmHg 45%
    03:00 +30°C° 0 mm 3 mps 711 mmHg 46%
    04:00 +30°C° 0 mm 3 mps 712 mmHg 47%
    05:00 +30°C° 0 mm 3 mps 712 mmHg 48%
    06:00 +30°C° 0 mm 3 mps 712 mmHg 49%
    07:00 +32°C° 0 mm 4 mps 713 mmHg 43%
    08:00 +34°C° 0 mm 4 mps 713 mmHg 38%
    09:00 +36°C° 0 mm 5 mps 713 mmHg 33%
    10:00 +39°C° 0 mm 5 mps 713 mmHg 28%
    11:00 +40°C° 0 mm 5 mps 713 mmHg 24%
    12:00 +42°C° 0 mm 4 mps 712 mmHg 19%
    13:00 +42°C° 0 mm 4 mps 712 mmHg 17%
    14:00 +43°C° 0 mm 4 mps 711 mmHg 14%
    15:00 +43°C° 0 mm 4 mps 711 mmHg 12%
    16:00 +43°C° 0 mm 4 mps 711 mmHg 11%
    17:00 +43°C° 0 mm 4 mps 711 mmHg 10%
    18:00 +43°C° 0 mm 4 mps 711 mmHg 9%
    19:00 +41°C° 0 mm 5 mps 711 mmHg 13%
    20:00 +39°C° 0 mm 5 mps 711 mmHg 16%
    21:00 +36°C° 0 mm 6 mps 712 mmHg 20%
    22:00 +35°C° 0 mm 6 mps 712 mmHg 23%
    23:00 +34°C° 0 mm 6 mps 712 mmHg 26%

    23 January, Thursday

    Time Temperature Precipitation Wind Pressure Humidity
    00:00 +33°C° 0 mm 6 mps 712 mmHg 29%
    01:00 +32°C° 0 mm 6 mps 712 mmHg 31%
    02:00 +30°C° 0 mm 6 mps 712 mmHg 33%
    03:00 +29°C° 0 mm 6 mps 713 mmHg 35%
    04:00 +28°C° 0 mm 6 mps 713 mmHg 36%
    05:00 +27°C° 0 mm 6 mps 714 mmHg 37%
    06:00 +26°C° 0 mm 7 mps 714 mmHg 38%
    07:00 +26°C° 0 mm 6 mps 715 mmHg 36%
    08:00 +27°C° 0 mm 6 mps 715 mmHg 34%
    09:00 +28°C° 0 mm 6 mps 715 mmHg 32%
    10:00 +30°C° 0 mm 6 mps 715 mmHg 30%
    11:00 +33°C° 0 mm 5 mps 715 mmHg 27%
    12:00 +35°C° 0 mm 4 mps 715 mmHg 24%
    13:00 +36°C° 0 mm 4 mps 714 mmHg 23%
    14:00 +37°C° 0 mm 3 mps 714 mmHg 21%
    15:00 +38°C° 0 mm 2 mps 713 mmHg 20%
    16:00 +38°C° 0 mm 2 mps 713 mmHg 19%
    17:00 +39°C° 0 mm 2 mps 713 mmHg 19%
    18:00 +39°C° 0 mm 3 mps 713 mmHg 19%
    19:00 +37°C° 0 mm 4 mps 713 mmHg 20%
    20:00 +35°C° 0 mm 6 mps 714 mmHg 21%
    21:00 +33°C° 0 mm 8 mps 714 mmHg 22%
    22:00 +32°C° 0 mm 8 mps 714 mmHg 23%
    23:00 +31°C° 0 mm 8 mps 715 mmHg 25%

    24 January, Friday

    Time Temperature Precipitation Wind Pressure Humidity
    00:00 +29°C° 0 mm 8 mps 715 mmHg 26%
    01:00 +28°C° 0 mm 7 mps 715 mmHg 28%
    02:00 +27°C° 0 mm 6 mps 715 mmHg 30%
    03:00 +26°C° 0 mm 5 mps 715 mmHg 32%
    04:00 +25°C° 0 mm 5 mps 715 mmHg 35%
    05:00 +25°C° 0 mm 5 mps 716 mmHg 37%
    06:00 +23°C° 0 mm 6 mps 716 mmHg 40%
    07:00 +26°C° 0 mm 6 mps 716 mmHg 36%
    08:00 +28°C° 0 mm 7 mps 717 mmHg 33%
    09:00 +29°C° 0 mm 8 mps 717 mmHg 29%
    10:00 +32°C° 0 mm 7 mps 717 mmHg 26%
    11:00 +34°C° 0 mm 7 mps 716 mmHg 24%
    12:00 +36°C° 0 mm 6 mps 716 mmHg 22%
    13:00 +37°C° 0 mm 5 mps 715 mmHg 21%
    14:00 +39°C° 0 mm 5 mps 715 mmHg 20%
    15:00 +40°C° 0 mm 4 mps 714 mmHg 20%
    16:00 +40°C° 0 mm 4 mps 714 mmHg 19%
    17:00 +40°C° 0 mm 4 mps 714 mmHg 19%
    18:00 +40°C° 0 mm 4 mps 714 mmHg 19%
    19:00 +38°C° 0 mm 4 mps 714 mmHg 20%
    20:00 +37°C° 0 mm 4 mps 715 mmHg 21%
    21:00 +35°C° 0 mm 4 mps 715 mmHg 23%
    22:00 +35°C° 0 mm 5 mps 715 mmHg 24%
    23:00 +34°C° 0 mm 5 mps 715 mmHg 25%
    Show more